Time,TemperatureF,DewpointF,PressureIn,WindDirection,WindDirectionDegrees,WindSpeedMPH,WindSpeedGustMPH,Humidity,HourlyPrecipIn,Conditions,Clouds,dailyrainin,SoftwareType,DateUTC
2013-04-22 00:11:00,54.7,29.0,29.95,SSE,165,2.0,3.0,38,0.00,,,0.00,weatherlink.com 1.10,2013-04-22 07:11:00,
2013-04-22 00:26:00,55.7,31.0,29.96,SSE,152,5.0,6.0,39,0.00,,,0.00,weatherlink.com 1.10,2013-04-22 07:26:00,
2013-04-22 00:41:00,56.5,32.0,29.95,SSW,193,4.0,5.0,39,0.00,,,0.00,weatherlink.com 1.10,2013-04-22 07:41:00,
2013-04-22 00:56:00,55.9,31.0,29.95,SSE,155,2.0,5.0,39,0.00,,,0.00,weatherlink.com 1.10,2013-04-22 07:56:00,
2013-04-22 01:11:00,55.9,31.0,29.94,SSE,167,2.0,4.0,39,0.00,,,0.00,weatherlink.com 1.10,2013-04-22 08:11:00,
2013-04-22 01:26:00,55.8,31.0,29.94,SE,138,2.0,4.0,39,0.00,,,0.00,weatherlink.com 1.10,2013-04-22 08:26:00,
2013-04-22 01:41:00,55.9,29.0,29.93,ESE,115,1.0,7.0,36,0.00,,,0.00,weatherlink.com 1.10,2013-04-22 08:41:00,
2013-04-22 01:56:00,56.0,27.0,29.93,SSW,200,1.0,4.0,33,0.00,,,0.00,weatherlink.com 1.10,2013-04-22 08:56:00,
2013-04-22 02:11:00,57.5,27.0,29.93,SSW,201,5.0,6.0,31,0.00,,,0.00,weatherlink.com 1.10,2013-04-22 09:11:00,
2013-04-22 02:26:00,57.1,27.0,29.92,SSW,207,2.0,5.0,32,0.00,,,0.00,weatherlink.com 1.10,2013-04-22 09:26:00,
2013-04-22 02:41:00,55.5,26.0,29.91,South,185,4.0,6.0,32,0.00,,,0.00,weatherlink.com 1.10,2013-04-22 09:41:00,
2013-04-22 02:56:00,54.7,26.0,29.91,WSW,243,3.0,8.0,33,0.00,,,0.00,weatherlink.com 1.10,2013-04-22 09:56:00,
2013-04-22 03:11:00,53.8,26.0,29.91,NNW,329,1.0,10.0,34,0.00,,,0.00,weatherlink.com 1.10,2013-04-22 10:11:00,
2013-04-22 03:26:00,54.6,27.0,29.91,East,93,1.0,6.0,34,0.00,,,0.00,weatherlink.com 1.10,2013-04-22 10:26:00,
2013-04-22 03:41:00,53.5,27.0,29.90,SSW,208,3.0,7.0,36,0.00,,,0.00,weatherlink.com 1.10,2013-04-22 10:41:00,
2013-04-22 03:56:00,53.6,28.0,29.90,ESE,111,4.0,6.0,37,0.00,,,0.00,weatherlink.com 1.10,2013-04-22 10:56:00,
2013-04-22 04:11:00,53.3,29.0,29.90,East,79,2.0,8.0,39,0.00,,,0.00,weatherlink.com 1.10,2013-04-22 11:11:00,
2013-04-22 04:26:00,52.9,30.0,29.89,South,187,5.0,10.0,41,0.00,,,0.00,weatherlink.com 1.10,2013-04-22 11:26:00,
2013-04-22 04:41:00,52.3,31.0,29.89,East,101,4.0,12.0,44,0.00,,,0.00,weatherlink.com 1.10,2013-04-22 11:41:00,
2013-04-22 04:56:00,52.9,31.0,29.89,ESE,111,5.0,7.0,44,0.00,,,0.00,weatherlink.com 1.10,2013-04-22 11:56:00,
2013-04-22 05:11:00,52.3,31.0,29.89,ESE,103,2.0,6.0,45,0.00,,,0.00,weatherlink.com 1.10,2013-04-22 12:11:00,
2013-04-22 05:26:00,52.6,32.0,29.89,WNW,290,3.0,5.0,46,0.00,,,0.00,weatherlink.com 1.10,2013-04-22 12:26:00,
2013-04-22 05:41:00,53.3,32.0,29.89,ESE,117,2.0,6.0,44,0.00,,,0.00,weatherlink.com 1.10,2013-04-22 12:41:00,
2013-04-22 05:56:00,52.9,32.0,29.89,ESE,115,3.0,6.0,45,0.00,,,0.00,weatherlink.com 1.10,2013-04-22 12:56:00,
2013-04-22 06:12:00,51.0,32.0,29.89,West,280,3.0,7.0,48,0.00,,,0.00,weatherlink.com 1.10,2013-04-22 13:12:00,
2013-04-22 06:27:00,50.0,32.0,29.89,SSW,201,4.0,9.0,50,0.00,,,0.00,weatherlink.com 1.10,2013-04-22 13:27:00,
2013-04-22 06:42:00,50.6,32.0,29.90,SE,136,3.0,7.0,49,0.00,,,0.00,weatherlink.com 1.10,2013-04-22 13:42:00,
2013-04-22 06:57:00,52.3,32.0,29.90,SSE,153,1.0,8.0,46,0.00,,,0.00,weatherlink.com 1.10,2013-04-22 13:57:00,
2013-04-22 07:12:00,54.3,32.0,29.90,SSW,200,4.0,6.0,43,0.00,,,0.00,weatherlink.com 1.10,2013-04-22 14:12:00,
2013-04-22 07:27:00,56.3,32.0,29.90,ESE,106,2.0,6.0,40,0.00,,,0.00,weatherlink.com 1.10,2013-04-22 14:27:00,
2013-04-22 07:42:00,58.4,32.0,29.90,West,277,3.0,7.0,37,0.00,,,0.00,weatherlink.com 1.10,2013-04-22 14:42:00,
2013-04-22 07:57:00,58.9,33.0,29.90,SSE,159,6.0,8.0,38,0.00,,,0.00,weatherlink.com 1.10,2013-04-22 14:57:00,
2013-04-22 08:12:00,60.4,33.0,29.90,South,169,5.0,8.0,36,0.00,,,0.00,weatherlink.com 1.10,2013-04-22 15:12:00,
2013-04-22 08:27:00,61.5,34.0,29.90,WSW,253,2.0,10.0,36,0.00,,,0.00,weatherlink.com 1.10,2013-04-22 15:27:00,
2013-04-22 08:42:00,63.0,35.0,29.90,South,184,7.0,8.0,35,0.00,,,0.00,weatherlink.com 1.10,2013-04-22 15:42:00,
2013-04-22 08:57:00,64.8,36.0,29.90,South,186,4.0,8.0,34,0.00,,,0.00,weatherlink.com 1.10,2013-04-22 15:57:00,
2013-04-22 09:12:00,66.4,36.0,29.90,SSE,156,4.0,8.0,33,0.00,,,0.00,weatherlink.com 1.10,2013-04-22 16:12:00,
2013-04-22 09:27:00,67.5,36.0,29.90,SSW,198,4.0,12.0,31,0.00,,,0.00,weatherlink.com 1.10,2013-04-22 16:27:00,
2013-04-22 09:42:00,69.4,37.0,29.90,South,191,9.0,10.0,30,0.00,,,0.00,weatherlink.com 1.10,2013-04-22 16:42:00,
2013-04-22 09:57:00,70.5,37.0,29.90,South,186,8.0,10.0,29,0.00,,,0.00,weatherlink.com 1.10,2013-04-22 16:57:00,
2013-04-22 10:12:00,71.9,37.0,29.89,WNW,294,2.0,13.0,28,0.00,,,0.00,weatherlink.com 1.10,2013-04-22 17:12:00,
2013-04-22 10:27:00,74.1,37.0,29.89,SW,222,1.0,10.0,26,0.00,,,0.00,weatherlink.com 1.10,2013-04-22 17:27:00,
2013-04-22 10:42:00,74.7,38.0,29.89,West,281,2.0,9.0,26,0.00,,,0.00,weatherlink.com 1.10,2013-04-22 17:42:00,
2013-04-22 10:58:00,76.3,35.0,29.89,WNW,302,5.0,7.0,22,0.00,,,0.00,weatherlink.com 1.10,2013-04-22 17:58:00,
2013-04-22 11:13:00,77.0,37.0,29.89,WNW,283,6.0,10.0,24,0.00,,,0.00,weatherlink.com 1.10,2013-04-22 18:13:00,
2013-04-22 11:28:00,77.5,37.0,29.88,SSE,166,5.0,8.0,23,0.00,,,0.00,weatherlink.com 1.10,2013-04-22 18:28:00,
2013-04-22 11:43:00,78.2,36.0,29.88,SSW,207,4.0,9.0,22,0.00,,,0.00,weatherlink.com 1.10,2013-04-22 18:43:00,
2013-04-22 11:58:00,78.6,38.0,29.87,WSW,253,1.0,10.0,23,0.00,,,0.00,weatherlink.com 1.10,2013-04-22 18:58:00,
2013-04-22 12:13:00,78.6,38.0,29.86,SSW,195,8.0,11.0,23,0.00,,,0.00,weatherlink.com 1.10,2013-04-22 19:13:00,
2013-04-22 12:28:00,77.5,38.0,29.86,SE,141,13.0,16.0,24,0.00,,,0.00,weatherlink.com 1.10,2013-04-22 19:28:00,
2013-04-22 12:43:00,76.6,38.0,29.85,SW,228,9.0,18.0,25,0.00,,,0.00,weatherlink.com 1.10,2013-04-22 19:43:00,
2013-04-22 12:58:00,76.6,39.0,29.84,South,181,12.0,15.0,26,0.00,,,0.00,weatherlink.com 1.10,2013-04-22 19:58:00,
2013-04-22 13:13:00,76.6,41.0,29.84,SW,219,8.0,15.0,28,0.00,,,0.00,weatherlink.com 1.10,2013-04-22 20:13:00,
2013-04-22 13:28:00,76.5,42.0,29.84,SSW,197,5.0,17.0,29,0.00,,,0.00,weatherlink.com 1.10,2013-04-22 20:28:00,
2013-04-22 13:43:00,76.5,43.0,29.83,South,174,8.0,15.0,30,0.00,,,0.00,weatherlink.com 1.10,2013-04-22 20:43:00,
2013-04-22 13:58:00,76.4,43.0,29.83,SSE,148,13.0,19.0,30,0.00,,,0.00,weatherlink.com 1.10,2013-04-22 20:58:00,
2013-04-22 14:13:00,76.3,44.0,29.83,SSW,200,6.0,17.0,32,0.00,,,0.00,weatherlink.com 1.10,2013-04-22 21:13:00,
2013-04-22 14:28:00,75.9,44.0,29.82,NW,314,7.0,17.0,32,0.00,,,0.00,weatherlink.com 1.10,2013-04-22 21:28:00,
2013-04-22 14:43:00,75.6,44.0,29.82,WSW,250,10.0,18.0,32,0.00,,,0.00,weatherlink.com 1.10,2013-04-22 21:43:00,
2013-04-22 14:58:00,75.3,44.0,29.82,SSW,201,8.0,21.0,33,0.00,,,0.00,weatherlink.com 1.10,2013-04-22 21:58:00,
2013-04-22 15:13:00,75.4,44.0,29.81,SSW,205,3.0,17.0,33,0.00,,,0.00,weatherlink.com 1.10,2013-04-22 22:13:00,
2013-04-22 15:28:00,75.3,43.0,29.80,South,190,6.0,15.0,32,0.00,,,0.00,weatherlink.com 1.10,2013-04-22 22:28:00,
2013-04-22 15:43:00,75.3,43.0,29.80,SSE,163,9.0,18.0,31,0.00,,,0.00,weatherlink.com 1.10,2013-04-22 22:43:00,
2013-04-22 15:58:00,74.6,43.0,29.80,SSE,159,10.0,17.0,32,0.00,,,0.00,weatherlink.com 1.10,2013-04-22 22:58:00,
2013-04-22 16:13:00,73.8,43.0,29.79,SSW,198,11.0,19.0,33,0.00,,,0.00,weatherlink.com 1.10,2013-04-22 23:13:00,
2013-04-22 16:28:00,73.7,42.0,29.79,South,190,9.0,17.0,32,0.00,,,0.00,weatherlink.com 1.10,2013-04-22 23:28:00,
2013-04-22 16:43:00,73.3,42.0,29.78,South,180,9.0,18.0,33,0.00,,,0.00,weatherlink.com 1.10,2013-04-22 23:43:00,
2013-04-22 16:58:00,72.7,42.0,29.79,WSW,239,6.0,20.0,33,0.00,,,0.00,weatherlink.com 1.10,2013-04-22 23:58:00,
2013-04-22 17:13:00,72.6,43.0,29.79,SSE,156,4.0,16.0,34,0.00,,,0.00,weatherlink.com 1.10,2013-04-23 00:13:00,
2013-04-22 17:28:00,71.4,44.0,29.79,WSW,246,9.0,16.0,37,0.00,,,0.00,weatherlink.com 1.10,2013-04-23 00:28:00,
2013-04-22 17:43:00,70.8,45.0,29.79,SE,143,6.0,17.0,39,0.00,,,0.00,weatherlink.com 1.10,2013-04-23 00:43:00,
2013-04-22 17:58:00,69.5,45.0,29.79,WSW,252,8.0,17.0,42,0.00,,,0.00,weatherlink.com 1.10,2013-04-23 00:58:00,
2013-04-22 18:13:00,68.2,45.0,29.79,SSW,211,11.0,14.0,44,0.00,,,0.00,weatherlink.com 1.10,2013-04-23 01:13:00,
2013-04-22 18:28:00,66.6,45.0,29.78,SSW,205,12.0,17.0,46,0.00,,,0.00,weatherlink.com 1.10,2013-04-23 01:28:00,
2013-04-22 18:43:00,65.1,45.0,29.78,SSE,156,19.0,19.0,48,0.00,,,0.00,weatherlink.com 1.10,2013-04-23 01:43:00,
2013-04-22 18:58:00,64.1,44.0,29.78,South,172,11.0,17.0,49,0.00,,,0.00,weatherlink.com 1.10,2013-04-23 01:58:00,
2013-04-22 19:13:00,63.1,44.0,29.79,South,179,11.0,19.0,50,0.00,,,0.00,weatherlink.com 1.10,2013-04-23 02:13:00,
2013-04-22 19:28:00,62.2,44.0,29.79,SSW,193,8.0,20.0,52,0.00,,,0.00,weatherlink.com 1.10,2013-04-23 02:28:00,
2013-04-22 19:43:00,61.1,44.0,29.80,SSW,200,12.0,20.0,53,0.00,,,0.00,weatherlink.com 1.10,2013-04-23 02:43:00,
2013-04-22 19:59:00,60.0,44.0,29.80,South,191,3.0,15.0,55,0.00,,,0.00,weatherlink.com 1.10,2013-04-23 02:59:00,
2013-04-22 20:14:00,58.7,43.0,29.81,NW,313,5.0,12.0,57,0.00,,,0.00,weatherlink.com 1.10,2013-04-23 03:14:00,
2013-04-22 20:29:00,57.8,43.0,29.81,WSW,248,5.0,10.0,59,0.00,,,0.00,weatherlink.com 1.10,2013-04-23 03:29:00,
2013-04-22 20:44:00,57.7,43.0,29.81,SE,142,4.0,15.0,59,0.00,,,0.00,weatherlink.com 1.10,2013-04-23 03:44:00,
2013-04-22 20:59:00,56.9,43.0,29.82,SSW,194,4.0,14.0,60,0.00,,,0.00,weatherlink.com 1.10,2013-04-23 03:59:00,
2013-04-22 21:14:00,56.3,43.0,29.82,SE,127,3.0,12.0,61,0.00,,,0.00,weatherlink.com 1.10,2013-04-23 04:14:00,
2013-04-22 21:29:00,56.0,43.0,29.83,South,186,6.0,12.0,61,0.00,,,0.00,weatherlink.com 1.10,2013-04-23 04:29:00,
2013-04-22 21:44:00,56.1,43.0,29.82,SSW,195,7.0,16.0,61,0.00,,,0.00,weatherlink.com 1.10,2013-04-23 04:44:00,
2013-04-22 21:59:00,56.4,42.0,29.82,SE,145,6.0,17.0,60,0.00,,,0.00,weatherlink.com 1.10,2013-04-23 04:59:00,
2013-04-22 22:14:00,56.0,42.0,29.83,West,270,2.0,14.0,60,0.00,,,0.00,weatherlink.com 1.10,2013-04-23 05:14:00,
2013-04-22 22:29:00,55.1,42.0,29.82,NE,49,6.0,17.0,62,0.00,,,0.00,weatherlink.com 1.10,2013-04-23 05:29:00,
2013-04-22 22:44:00,54.3,42.0,29.83,SSW,197,2.0,8.0,63,0.00,,,0.00,weatherlink.com 1.10,2013-04-23 05:44:00,
2013-04-22 22:59:00,54.7,42.0,29.80,SW,219,6.0,21.0,63,0.00,,,0.00,weatherlink.com 1.10,2013-04-23 05:59:00,
2013-04-22 23:14:00,55.2,42.0,29.82,East,86,3.0,11.0,61,0.00,,,0.00,weatherlink.com 1.10,2013-04-23 06:14:00,
2013-04-22 23:29:00,53.0,41.0,29.82,SW,228,14.0,15.0,65,0.00,,,0.00,weatherlink.com 1.10,2013-04-23 06:29:00,
2013-04-22 23:44:00,52.3,42.0,29.82,West,260,3.0,15.0,67,0.00,,,0.00,weatherlink.com 1.10,2013-04-23 06:44:00,
2013-04-22 23:59:00,52.5,42.0,29.81,South,190,12.0,22.0,67,0.00,,,0.00,weatherlink.com 1.10,2013-04-23 06:59:00,